Flag for U.S.A. Weather past 2 weeks in Prudhoe Bay, Alaska, U.S.A.

Now
34 °F

Light rain. More clouds than sun.


Feels Like: 34 °F
Forecast: 30 / 38 °F
Wind: No wind

Location: Deadhorse Airport

Current Time: May 30, 2015 at 5:24:39 AM

Latest Report: May 30, 2015 at 4:53 AM


Visibility: 10 mi

Pressure: 30.41 "Hg

Humidity: 92%

Dew point: 32 °F

Location of Prudhoe BayLocation

Historic Weather in Prudhoe Bay — Graph

°F

Prudhoe Bay temperature yesterday

Maximum temperature yesterday: 40 °F (at 8:53 PM)
Minimum temperature yesterday: 32 °F (at 2:53 AM)
Average temperature yesterday: 35 °F

Past Weeks' High & Low Weather Summary

 TemperatureHumidityPressure
High50 °F (May 18, 4:53 PM)97% (May 21, 9:53 AM)30.41 "Hg (May 21, 9:53 AM)
Low27 °F (May 15, 3:53 AM)59% (May 17, 2:53 PM)29.73 "Hg (May 15, 9:53 PM)
Average36 °F83%30.09 "Hg
* Reported May 15 3:53 AM — May 30 3:53 AM, Prudhoe Bay, Weather by CustomWeather, © 2015

Note: Actual official high and low records may vary slightly from our data, if they occured in-between our weather recording intervals... More about our weather records

Advertising

Prudhoe Bay weather history for previous 24 hours

 ConditionsComfort  
Time TempWeatherWind HumidityBarometerVisibility
3:53 AM
Sat, May 30
34 °FMostly cloudy.3 mph92%30.41 "Hg10 mi
2:53 AM34 °FMostly cloudy.5 mph88%30.41 "Hg10 mi
1:53 AM35 °FMostly cloudy.5 mph85%30.41 "Hg10 mi
12:53 AM35 °FOvercast.5 mph88%30.41 "Hg10 mi
11:53 PM
Fri, May 29
36 °FMostly cloudy.5 mph85%30.41 "Hg10 mi
10:53 PM37 °FCloudy.7 mph82%30.41 "Hg10 mi
9:53 PM38 °FOvercast.6 mph79%30.40 "Hg10 mi
8:53 PM40 °FOvercast.3 mph68%30.41 "Hg10 mi
7:53 PM39 °FOvercast.3 mph70%30.41 "Hg10 mi
6:53 PM39 °FBroken clouds.No wind70%30.40 "Hg10 mi
5:53 PM38 °FMostly cloudy.No wind73%30.40 "Hg10 mi
4:53 PM37 °FOvercast.No wind76%30.40 "Hg10 mi
3:53 PM36 °FOvercast.No wind79%30.40 "Hg10 mi
2:53 PM36 °FOvercast.No wind79%30.41 "Hg10 mi
1:53 PM35 °FLow clouds.3 mph82%30.40 "Hg10 mi
12:53 PM34 °FLow clouds.6 mph85%30.39 "Hg10 mi
11:53 AM34 °FLow clouds.8 mph85%30.37 "Hg9 mi
10:53 AM33 °FLight snow. Low clouds.12 mph85%30.36 "Hg10 mi
9:53 AM33 °FMore clouds than sun.10 mph88%30.34 "Hg10 mi
8:53 AM32 °FLow clouds.14 mph88%30.32 "Hg10 mi
7:53 AM32 °FMore clouds than sun.12 mph88%30.31 "Hg10 mi
6:53 AM32 °FCloudy.13 mph88%30.29 "Hg10 mi
5:53 AM32 °FLight freezing rain. Ice fog.16 mph85%30.28 "Hg6 mi
Weather by CustomWeather, © 2015

See weather overviewHow to use our weather pages